TimeCST,TemperatureF,Dew PointF,Humidity,Sea Level PressureIn,VisibilityMPH,Wind Direction,Wind SpeedMPH,Gust SpeedMPH,PrecipitationIn,Events,Conditions,WindDirDegrees,DateUTC
12:51 AM,30.9,27.0,85,30.02,10.0,NNW,6.9,-,N/A,,Overcast,330,2013-03-06 06:51:00
1:51 AM,30.9,26.1,82,30.05,9.0,NW,12.7,-,0.00,Snow,Light Snow,320,2013-03-06 07:51:00
2:17 AM,30.2,26.6,86,30.01,7.0,NNW,11.5,-,0.00,Snow,Light Snow,330,2013-03-06 08:17:00
2:51 AM,30.9,26.1,82,30.06,8.0,NNW,17.3,-,0.00,Snow,Light Snow,330,2013-03-06 08:51:00
3:51 AM,30.0,25.0,82,30.10,7.0,NNW,17.3,-,0.00,Snow,Light Snow,330,2013-03-06 09:51:00
4:51 AM,28.0,23.0,81,30.14,8.0,NNW,19.6,25.3,0.00,Snow,Light Snow,330,2013-03-06 10:51:00
5:45 AM,28.4,23.0,80,30.12,10.0,NNW,16.1,-,0.00,Snow,Light Snow,330,2013-03-06 11:45:00
5:51 AM,28.9,23.0,78,30.17,10.0,NNW,13.8,21.9,0.00,Snow,Light Snow,330,2013-03-06 11:51:00
6:51 AM,28.9,23.0,78,30.17,10.0,NNW,9.2,-,0.00,Snow,Light Snow,340,2013-03-06 12:51:00
7:51 AM,28.9,24.1,82,30.20,10.0,NW,10.4,-,0.00,,Overcast,320,2013-03-06 13:51:00
8:51 AM,28.9,24.1,82,30.23,5.0,NNW,11.5,21.9,0.00,Snow,Light Snow,330,2013-03-06 14:51:00
9:51 AM,30.0,25.0,82,30.25,6.0,NW,11.5,-,0.00,Snow,Light Snow,320,2013-03-06 15:51:00
10:51 AM,30.9,25.0,79,30.26,10.0,NW,10.4,-,0.00,Snow,Light Snow,320,2013-03-06 16:51:00
11:08 AM,32.0,26.6,80,30.22,10.0,NW,11.5,-,0.00,Snow,Light Snow,320,2013-03-06 17:08:00
11:51 AM,33.1,26.1,75,30.26,10.0,NW,12.7,-,0.00,,Overcast,310,2013-03-06 17:51:00
12:51 PM,34.0,26.1,73,30.25,10.0,NNW,12.7,-,N/A,,Overcast,330,2013-03-06 18:51:00
1:51 PM,34.0,26.1,73,30.25,10.0,NW,13.8,-,N/A,,Overcast,310,2013-03-06 19:51:00
2:51 PM,34.0,26.1,73,30.27,10.0,NNW,15.0,19.6,N/A,,Overcast,330,2013-03-06 20:51:00
3:51 PM,34.0,26.1,73,30.27,10.0,NW,9.2,-,N/A,,Overcast,310,2013-03-06 21:51:00
4:51 PM,34.0,26.1,73,30.29,10.0,WNW,9.2,-,N/A,,Overcast,290,2013-03-06 22:51:00
5:51 PM,33.1,25.0,72,30.30,9.0,NW,8.1,-,N/A,,Overcast,310,2013-03-06 23:51:00
6:23 PM,33.8,26.6,75,30.27,10.0,WNW,8.1,-,N/A,,Overcast,300,2013-03-07 00:23:00
6:51 PM,33.1,25.0,72,30.32,10.0,WNW,8.1,-,N/A,,Overcast,300,2013-03-07 00:51:00
7:51 PM,32.0,25.0,75,30.32,10.0,NW,8.1,-,N/A,,Overcast,310,2013-03-07 01:51:00
8:51 PM,32.0,25.0,75,30.33,9.0,NW,9.2,-,N/A,,Overcast,310,2013-03-07 02:51:00
9:51 PM,32.0,25.0,75,30.33,9.0,NW,6.9,-,N/A,,Overcast,320,2013-03-07 03:51:00
10:51 PM,32.0,25.0,75,30.33,8.0,NNW,6.9,-,0.00,,Overcast,330,2013-03-07 04:51:00
11:51 PM,32.0,25.0,75,30.32,10.0,NNW,9.2,-,N/A,,Overcast,330,2013-03-07 05:51:00